Weather Roundup
Issued by NWS

Home | Current Version | Previous Version | Graphics & Text | Print | Product List | Glossary Off
Versions: 1 2 3 4 5 6 7 8 9 10 11 12 13 14 15 16 17 18 19 20 21 22 23 24 25 26 27 28 29 30 31 32 33 34 35 36 37 38 39 40 41 42 43 44 45 46 47 48 49 50

401
NZUS93 KARX 270359
HRRWXR

CURRENT HOURLY OBSERVATIONS ACROSS
MUCH OF THE UPPER MISSISSIPPI VALLEY
NATIONAL WEATHER SERVICE LA CROSSE WI
1100 PM CDT WED APR 26 2017


...SOUTHEAST MINNESOTA...


CITY           SKY/WX    TMP DP  RH WIND       PRES   REMARKS
ROCHESTER      LGT RAIN  36  36 100 NW10      29.55R FOG     WCI  28
ROCHESTER/MAYO CLOUDY    37  35  91 NW9       29.55S WCI  30
WINONA         CLOUDY    37  36  93 NW8       29.54S FOG     WCI  31
AUSTIN         CLOUDY    36  34  93 NW13      29.56R FOG     WCI  27
ALBERT LEA     CLOUDY    36  34  93 NW8       29.58R WCI  29
DODGE CENTER   DRIZZLE   36  36 100 NW12      29.55F WCI  27
PRESTON        CLOUDY    37  34  89 NW10      29.54S WCI  29
OWATONNA       DRIZZLE   36  34  93 NW10      29.58S WCI  28
FARIBAULT      CLOUDY    36  34  93 NW6       29.58F FOG     WCI  31
$$

...ELSEWHERE IN MINNESOTA...


CITY           SKY/WX    TMP DP  RH WIND       PRES   REMARKS
MINNEAPOLIS    CLOUDY    37  31  78 N10       29.58F WCI  30
INTNL FALLS    CLOUDY    24  16  71 NE14G22   29.71F WCI  12
DULUTH         CLOUDY    26  23  88 N12       29.58F WCI  16
RED WING       DRIZZLE   37  34  87 N5        29.55F WCI  34
REDWOOD FALLS  CLOUDY    32  29  88 NW13      29.63F WCI  22
MANKATO        CLOUDY    35  31  85 NW12      29.61S WCI  27
WORTHINGTON    CLOUDY    29  27  92 NW17      29.65F WCI  17
FAIRMONT       CLOUDY    32  31  96 NW20      29.63R WCI  20
$$

...SOUTHWEST WISCONSIN...


CITY           SKY/WX    TMP DP  RH WIND       PRES   REMARKS
LA CROSSE      CLOUDY    43  39  86 N8        29.51F
PRAIRIE DU CHI CLOUDY    43  38  83 NW9       29.52F
BOSCOBEL       CLOUDY    45  39  79 VRB7      29.51F
LONE ROCK      NOT AVBL
PLATTEVILLE    CLOUDY    45  44  97 NW8       29.50R
FORT MC COY    CLOUDY    41  39  93 NW9       29.52S
CAMP DOUGLAS   CLOUDY    41  41 100 NW9       29.49F
MAUSTON-NEW LI DRIZZLE   43  42  96 NW6       29.49S
VIROQUA        CLOUDY    40  40 100 NW7       29.49F WCI  35
WIS DELLS      CLOUDY    44  42  95 NW7       29.49R FOG
$$

...ELSEWHERE IN WISCONSIN...


CITY           SKY/WX    TMP DP  RH WIND       PRES   REMARKS
MILWAUKEE      LGT RAIN  60  56  86 W5        29.45S
MADISON        CLOUDY    50  47  89 W6        29.46F
GREEN BAY      CLOUDY    53  51  93 W9        29.44S
EAU CLAIRE     CLOUDY    37  34  89 N7        29.52F WCI  32
BLACK RVR FLS  CLOUDY    40  39  95 NW6       29.51F
MEDFORD        CLOUDY    36  34  94 NW7       29.48F WCI  30
WAUSAU         CLOUDY    40  38  93 N8        29.46R WCI  34
WIS RAPIDS     CLOUDY    41  40  96 NW10      29.49R
MARSHFIELD     CLOUDY    39  36  89 NW9       29.47S WCI  33
RICE LAKE      CLOUDY    35  30  85 N9        29.56S WCI  27
$$

...NORTHEAST IOWA...


CITY           SKY/WX    TMP DP  RH WIND       PRES   REMARKS
WATERLOO       CLOUDY    40  35  83 NW17      29.55F WCI  31
DUBUQUE        CLOUDY    44  40  85 NW10      29.49S
DECORAH        CLOUDY    39  37  93 NW12      29.52R WCI  32
MASON CITY     CLOUDY    36  33  89 NW15      29.60R WCI  27
CHARLES CITY   CLOUDY    39  36  87 NW14      29.56S WCI  31
OELWEIN        CLOUDY    41  39  93 NW18      29.54S
$$

...ELSEWHERE IN IOWA...


CITY           SKY/WX    TMP DP  RH WIND       PRES   REMARKS
DES MOINES     CLOUDY    42  35  76 NW18G25   29.60F
IOWA CITY      LGT RAIN  46  41  82 NW9       29.53F
FORT DODGE     CLOUDY    36  28  75 NW7       29.63F WCI  30
MARSHALLTOWN   CLOUDY    41  35  79 NW23      29.57S
CEDAR RAPIDS   LGT RAIN  42  41  96 NW14      29.52S
$$

...NORTHERN ILLINOIS...


CITY           SKY/WX    TMP DP  RH WIND       PRES   REMARKS
CHICAGO-OHARE  LGT RAIN  61  57  87 CALM      29.44F
CHICAGO-MIDWAY LGT RAIN  64  61  90 SE6       29.45F FOG
MOLINE         LGT RAIN  47  44  90 N9        29.48F
ROCKFORD       LGT RAIN  52  50  93 N3        29.49F FOG
PEORIA         CLOUDY    51  50  96 NE7       29.44F
$$

NOTE: "FAIR" INDICATES FEW OR NO CLOUDS BELOW 12,000 FEET WITH NO
SIGNIFICANT WEATHER AND/OR OBSTRUCTIONS TO VISIBILITY. WIND
SPEEDS ARE IN MILES-PER-HOUR.




USA.gov is the U.S. government's official web portal to all federal, state and local government web resources and services.